Regional Weather Roundup
Issued by NWS

Home | Current Version | Previous Version | Graphics & Text | Print | Product List | Glossary On
Versions: 1 2 3 4 5 6 7 8 9 10 11 12 13 14 15 16 17 18 19 20 21 22 23 24 25 26 27 28 29 30 31 32 33 34 35 36 37 38 39 40 41 42 43 44 45 46 47 48
000
ASUS45 KBOU 271507
RWRCO

WEATHER ROUNDUP FOR COLORADO
NATIONAL WEATHER SERVICE DENVER/BOULDER CO
800 AM MST FRI FEB 27 2015

NOTE: "FAIR" INDICATES FEW OR NO CLOUDS BELOW 12000 FEET WITH NO
SIGNIFICANT WEATHER AND/OR OBSTRUCTIONS TO VISIBILITY.

COZ001>005-013-030-031-271600-
...NORTHWEST COLORADO...

CITY           SKY/WX    TMP DP  RH WIND       PRES   REMARKS
CRAIG          CLOUDY    11   7  84 W5        29.90R WCI   3
HAYDEN         CLOUDY    12   7  79 W3        29.86R
MEEKER         CLOUDY    13  10  88 CALM      29.86R
MOUNT WERNER   NOT AVBL
STEAMBOAT SPGS CLOUDY     9   4  83 CALM      29.84R
WALDEN         CLOUDY    -2  -8  78 CALM      29.79S VSB 1/4
$$

COZ006>008-011-271600-
...WEST CENTRAL VALLEYS...

CITY           SKY/WX    TMP DP  RH WIND       PRES   REMARKS
GRAND JUNCTION LGT SNOW  28  28 100 S6        29.84R VSB 3/4 WCI  22
MONTROSE       CLOUDY    24  19  81 CALM      29.84R
EAGLE          LGT SNOW  23  21  93 CALM      29.85R VSB 1
RIFLE          CLOUDY    25  15  66 NW3       29.85R
DELTA          LGT SNOW  31  28  91 CALM      29.85R VSB 1
NUCLA          CLOUDY    30  27  86 CALM      29.87R
$$

COZ017>023-064>068-271600-
...SOUTHWEST COLORADO...

CITY           SKY/WX    TMP DP  RH WIND       PRES   REMARKS
DURANGO        CLOUDY    24  23  96 CALM      29.86R
CORTEZ         CLOUDY    27  25  92 S8        29.87R WCI  19
PAGOSA SPRINGS FLURRIES  26  25  99 SW7       29.84R WCI  18
TELLURIDE      CLOUDY    19  15  82 CALM      29.79R
WOLF CREEK PAS   N/A    N/A N/A N/A SW22      29.76R
$$

COZ009-010-012-014-032>034-037-058>063-271600-
...CENTRAL COLORADO...

CITY           SKY/WX    TMP DP  RH WIND       PRES   REMARKS
ASPEN          LGT SNOW  19  17  92 S6        29.76R FOG     WCI  11
BUENA VISTA    CLOUDY     0  -6  76 CALM      29.87S HAZE
COPPER MTN     LGT SNOW   9   1  72 W14       29.66R WCI  -8
BERTHOUD PASS  CLOUDY    -2  -8  78 NW18      29.63R WCI -24
COTTONWOOD PAS CLOUDY     3   0  85 CALM      29.74R
GUNNISON       MOSUNNY   16  10  79 CALM      29.81S
KREMMLING      PTSUNNY    7   1  78 CALM      29.84R
LEADVILLE      LGT SNOW  -2  -6  83 CALM      29.72S FOG
SALIDA         CLOUDY     6   1  79 SE5       29.98R WCI  -3
SUNLIGHT       LGT SNOW  14  12  92 CALM      29.69  VSB 1
WILKERSON PASS MOSUNNY    5   1  85 W7        29.71R WCI  -7
$$

COZ069>075-271600-
...SAN LUIS VALLEY/SANGRE DE CRISTO MOUNTAINS...

CITY           SKY/WX    TMP DP  RH WIND       PRES   REMARKS
ALAMOSA        CLOUDY    15  10  80 SW7       29.83S WCI   5
LA VETA PASS   HVY SNOW   9   3  78 MISG      29.75R VSB 1/4
SAGUACHE       LGT SNOW  18  14  86 SE5       29.84R WCI  11
$$

COZ035-036-038>040-271600-
...NORTHERN COLORADO FRONT RANGE...

CITY           SKY/WX    TMP DP  RH WIND       PRES   REMARKS
DENVER INTL AP PTSUNNY    0  -6  76 S10       30.01R WCI -16
DMNS CITY PARK   N/A     12   9  89 NW1       30.01S
AURORA         MOSUNNY    7  -1  70 S14       29.99S WCI -10
FRONT RANGE AP NOT AVBL
ERIE MUNI ARPT LGT SNOW N/A N/A N/A CALM      30.04R
BOULDER MUN AP MOSUNNY    5   3  92 CALM      30.02R
CENTENNIAL     PTSUNNY    3  -2  79 S6        29.97S WCI  -8
BROOMFIELD     PTSUNNY    9   7  92 CALM      30.00R FOG
FORT COLLINS   PTSUNNY    7   1  78 N3        30.05R
LONGMONT       MOSUNNY    3  -1  83 W3        30.06S
$$

COZ041-046-047-076>085-087-088-271600-
...PIKES PEAK/PALMER DIVIDE AND SOUTHERN FOOTHILLS...

CITY           SKY/WX    TMP DP  RH WIND       PRES   REMARKS
COLO. SPRINGS  LGT SNOW   6   3  87 SE7       30.00S FOG     WCI  -6
A. F. ACADEMY  CLOUDY     5   0  80 S14       29.95S WCI -13
ELLICOTT       NOT AVBL
FALCON         LGT SNOW   4   1  85 SE12      29.95S WCI -12
FORT CARSON    LGT SNOW   7   4  87 CALM      30.01R FOG
LIMON          CLOUDY     6   3  87 SE23      30.07R FOG     WCI -15
MONUMENT HILL  HAZE       3   0  85 S21       29.89R VSB 1   WCI -18
TRINIDAD       PTSUNNY   11   5  77 N6        30.01S WCI   1
$$

COZ042>045-048>051-090-091-271600-
...NORTHEAST COLORADO...

CITY           SKY/WX    TMP DP  RH WIND       PRES   REMARKS
GREELEY ARPT   MOSUNNY    9   0  66 SE12      30.06S WCI  -6
AKRON          CLOUDY     8   6  92 SE17      30.13R FOG     WCI -10
BURLINGTON     LGT SNOW  10   5  80 SE20      30.21S WCI  -9
WRAY           LGT SNOW  14   9  81 SE15      30.25S WCI  -2
STERLING       CLOUDY    10   7  85 SE13      30.18S FOG     WCI  -5
HOLYOKE        NOT AVBL
FORT MORGAN    CLOUDY    10   6  85 SE10      30.13R WCI  -4
$$

COZ086-089-092>099-271600-
...SOUTHEAST COLORADO...

CITY           SKY/WX    TMP DP  RH WIND       PRES   REMARKS
PUEBLO         LGT SNOW  11   8  88 E7        30.09R FOG     WCI   0
LA JUNTA       LGT SNOW  14   8  77 SE17      30.15S WCI  -3
LAMAR          LGT SNOW  13   8  81 SE16G24   30.24S WCI  -3
SPRINGFIELD      N/A      8   5  87 SE18      30.19S WCI -11
$$



USA.gov is the U.S. government's official web portal to all federal, state and local government web resources and services.